User: anonymous   Login
Location: Haram ta Haram Freeway
(35.0583°N, 51.4202°E)
Time: 05:23:21
(UTC+04:30)
Language:

FALCONSAT 3 - Orbit

View from above orbital plane
View from above orbital plane
View from above satellite
View from above satellite

Ground track
Ground track

The orbit data is extracted from the following two-line orbital elements,

1 30776U 07006E   20188.31477602 +.00001669 +00000-0 +45197-4 0  9997
2 30776 035.4334 159.3328 0002654 334.3377 025.7218 15.37873530739742
Epoch (UTC): 06 July 2020 07:33:16
Eccentricity: 0.0002654
inclination: 35.4334°
perigee height: 450 km
apogee height: 454 km
right ascension of ascending node: 159.3328°
argument of perigee: 334.3377°
revolutions per day: 15.37873530
mean anomaly at epoch: 25.7218°
orbit number at epoch: 73974

The dashed part of the orbit path shows where the satellite is in the earth's shadow,  

DLR